Kosmos-1197

operational
NORAD ID: 11880 Int'l Des: 1980-058 Owner: GUKOSR Country: SU
LEOCIRCULAR

Kosmos-1197について

説明を読み込み中...

リアルタイム位置

3D地球を読み込み中...

次回通過

高度履歴

Altitude vs Time

uPlot chart will show altitude changes over time

軌道要素

1 11880U 80058F 26061.58266832 .00000009 00000-0 17113-3 0 9999
2 11880 74.0147 263.7751 0013754 222.4905 137.5080 12.46010083 76257
Epoch: Mar 2, 2026 • Age: 30 hours

現在のステータス

高度 1478.8 km
速度 7.13 km/s
衛星直下点 22.44°N, 178.48°W
打ち上げ日 Jul 9, 1980
運用期間 45.6 years
タイプ other

技術仕様

分類 Payload
質量 60.00 kg
乾燥質量 60.00 kg
総質量 60.00 kg
長さ 0.80 m
直径 0.80 m
スパン 0.80 m
形状 Poly
製造者 NPOPM
バスタイプ Strela-1 11F625
フェーズステータス In Orbit
所有者/国 GUKOSR/SU

大規模コンステレーション

Loading constellations...